Time,TemperatureF,DewpointF,PressureIn,WindDirection,WindDirectionDegrees,WindSpeedMPH,WindSpeedGustMPH,Humidity,HourlyPrecipIn,Conditions,Clouds,dailyrainin,SoftwareType,DateUTC
2013-03-06 00:02:00,43.0,-99.9,-100.00,NE,46,7.0,8.0,-999,-99.99,,,-99.99,,2013-03-06 06:02:00,
2013-03-06 01:52:00,41.0,-99.9,-100.00,NNE,29,0.0,4.0,-999,-99.99,,,-99.99,,2013-03-06 07:52:00,
2013-03-06 02:01:00,41.0,-99.9,-100.00,NNE,29,0.0,4.0,-999,-99.99,,,-99.99,,2013-03-06 08:01:00,
2013-03-06 05:02:00,41.0,-99.9,-100.00,East,80,2.0,4.0,-999,-99.99,,,-99.99,,2013-03-06 11:02:00,
2013-03-06 05:12:00,41.0,-99.9,-100.00,East,80,2.0,4.0,-999,-99.99,,,-99.99,,2013-03-06 11:12:00,
2013-03-06 05:23:00,41.0,-99.9,-100.00,East,80,2.0,4.0,-999,-99.99,,,-99.99,,2013-03-06 11:23:00,
2013-03-06 07:02:00,42.0,-99.9,-100.00,East,94,4.0,6.0,-999,-99.99,,,-99.99,,2013-03-06 13:02:00,
2013-03-06 07:12:00,42.0,-99.9,-100.00,East,94,4.0,6.0,-999,-99.99,,,-99.99,,2013-03-06 13:12:00,
2013-03-06 07:22:00,42.0,-99.9,-100.00,East,94,4.0,6.0,-999,-99.99,,,-99.99,,2013-03-06 13:22:00,
2013-03-06 07:40:00,42.0,-99.9,-100.00,NE,36,3.0,6.0,-999,-99.99,,,-99.99,,2013-03-06 13:40:00,
2013-03-06 08:22:00,42.0,-99.9,-100.00,NE,36,3.0,6.0,-999,-99.99,,,-99.99,,2013-03-06 14:22:00,
2013-03-06 08:32:00,42.0,-99.9,-100.00,NE,36,3.0,6.0,-999,-99.99,,,-99.99,,2013-03-06 14:32:00,
2013-03-06 10:30:00,53.0,-99.9,-100.00,ESE,110,12.0,12.0,-999,-99.99,,,-99.99,,2013-03-06 16:30:00,
2013-03-06 11:22:00,53.0,-99.9,-100.00,ESE,110,12.0,12.0,-999,-99.99,,,-99.99,,2013-03-06 17:22:00,
2013-03-06 14:30:00,62.0,-99.9,-100.00,SSW,212,10.0,18.0,-999,-99.99,,,-99.99,,2013-03-06 20:30:00,
2013-03-06 15:23:00,62.0,-99.9,-100.00,SSW,212,10.0,18.0,-999,-99.99,,,-99.99,,2013-03-06 21:23:00,
2013-03-06 18:00:00,64.0,-99.9,-100.00,SE,129,9.0,12.0,-999,-99.99,,,-99.99,,2013-03-07 00:00:00,
2013-03-06 18:22:00,65.0,-99.9,-100.00,SSE,154,8.0,19.0,-999,-99.99,,,-99.99,,2013-03-07 00:22:00,
2013-03-06 18:32:00,65.0,-99.9,-100.00,SSE,154,8.0,19.0,-999,-99.99,,,-99.99,,2013-03-07 00:32:00,
2013-03-06 18:52:00,64.0,-99.9,-100.00,SE,129,9.0,12.0,-999,-99.99,,,-99.99,,2013-03-07 00:52:00,
2013-03-06 19:52:00,58.0,-99.9,-100.00,NNE,25,0.0,6.0,-999,-99.99,,,-99.99,,2013-03-07 01:52:00,
2013-03-06 20:01:00,58.0,-99.9,-100.00,NNE,25,0.0,6.0,-999,-99.99,,,-99.99,,2013-03-07 02:01:00,
2013-03-06 20:10:00,54.0,-99.9,-100.00,ESE,104,5.0,7.0,-999,-99.99,,,-99.99,,2013-03-07 02:10:00,
2013-03-06 21:02:00,54.0,-99.9,-100.00,ESE,104,5.0,7.0,-999,-99.99,,,-99.99,,2013-03-07 03:02:00,
2013-03-06 23:32:00,47.0,-99.9,-100.00,ENE,62,5.0,6.0,-999,-99.99,,,-99.99,,2013-03-07 05:32:00,
2013-03-06 23:42:00,47.0,-99.9,-100.00,ENE,62,5.0,6.0,-999,-99.99,,,-99.99,,2013-03-07 05:42:00,